When you browse on this site, cookies collect data to enhance your experience and personalize the content and advertising you see.
Visit our Privacy Policy to learn more. By continuing to use the site, you agree to this use of cookies and data.
  • In Deutschland
  • Länderverzeichnis
  • Für 7 Tage
  • Wassertemperatur
  • Satellitenkarten
  • Wetterkarte
  • Widgets
  • user-avatar
    Anmelden

    Stündliche Wetter Ibiúna

    Heute, 23 Januar, Mittwoch

    Zeit Temperatur Niederschläge Wind Luftdruck Luftfeuchtigkeit
    00:00 +23°C° 0 mm 2 m/S 687 mmHg 94%
    01:00 +21°C° 0 mm 2 m/S 687 mmHg 94%
    02:00 +21°C° 0 mm 2 m/S 687 mmHg 95%
    03:00 +21°C° 0 mm 2 m/S 687 mmHg 95%
    04:00 +21°C° 0 mm 2 m/S 687 mmHg 95%
    05:00 +21°C° 0 mm 2 m/S 687 mmHg 95%
    06:00 +21°C° 0 mm 2 m/S 687 mmHg 95%
    07:00 +23°C° 0 mm 2 m/S 687 mmHg 88%
    08:00 +25°C° 0 mm 2 m/S 688 mmHg 82%
    09:00 +27°C° 0 mm 2 m/S 689 mmHg 75%
    10:00 +28°C° 0.6 mm 2 m/S 689 mmHg 70%
    11:00 +29°C° 0.6 mm 2 m/S 689 mmHg 65%
    12:00 +31°C° 0.6 mm 2 m/S 689 mmHg 60%
    13:00 +30°C° 3.2 mm 1 m/S 688 mmHg 64%
    14:00 +30°C° 3.2 mm 1 m/S 688 mmHg 68%
    15:00 +29°C° 3.2 mm 1 m/S 688 mmHg 71%
    16:00 +28°C° 3.3 mm 1 m/S 687 mmHg 76%
    17:00 +27°C° 3.3 mm 1 m/S 687 mmHg 80%
    18:00 +26°C° 3.3 mm 1 m/S 686 mmHg 85%
    19:00 +25°C° 0.5 mm 1 m/S 687 mmHg 88%
    20:00 +24°C° 0.5 mm 1 m/S 687 mmHg 91%
    21:00 +23°C° 0.5 mm 2 m/S 687 mmHg 94%
    22:00 +21°C° 0.1 mm 2 m/S 687 mmHg 93%
    23:00 +21°C° 0.1 mm 2 m/S 687 mmHg 93%

    Morgen, 24 Januar, Donnerstag

    Zeit Temperatur Niederschläge Wind Luftdruck Luftfeuchtigkeit
    00:00 +21°C° 0.1 mm 2 m/S 687 mmHg 92%
    01:00 +20°C° 0 mm 2 m/S 686 mmHg 92%
    02:00 +20°C° 0 mm 2 m/S 686 mmHg 92%
    03:00 +20°C° 0 mm 2 m/S 685 mmHg 92%
    04:00 +20°C° 0 mm 2 m/S 685 mmHg 93%
    05:00 +19°C° 0 mm 2 m/S 685 mmHg 94%
    06:00 +19°C° 0 mm 2 m/S 686 mmHg 94%
    07:00 +21°C° 0 mm 2 m/S 686 mmHg 88%
    08:00 +24°C° 0 mm 2 m/S 687 mmHg 83%
    09:00 +26°C° 0 mm 2 m/S 688 mmHg 77%
    10:00 +27°C° 0 mm 2 m/S 689 mmHg 69%
    11:00 +29°C° 0 mm 2 m/S 689 mmHg 61%
    12:00 +31°C° 0 mm 2 m/S 689 mmHg 52%
    13:00 +30°C° 0.1 mm 2 m/S 688 mmHg 56%
    14:00 +30°C° 0.1 mm 2 m/S 688 mmHg 60%
    15:00 +29°C° 0.1 mm 3 m/S 687 mmHg 64%
    16:00 +28°C° 0.7 mm 3 m/S 687 mmHg 70%
    17:00 +26°C° 0.7 mm 3 m/S 687 mmHg 76%
    18:00 +25°C° 0.7 mm 3 m/S 686 mmHg 82%
    19:00 +24°C° 0 mm 3 m/S 687 mmHg 85%
    20:00 +21°C° 0 mm 3 m/S 687 mmHg 89%
    21:00 +20°C° 0 mm 3 m/S 687 mmHg 93%
    22:00 +19°C° 0 mm 3 m/S 687 mmHg 93%
    23:00 +19°C° 0 mm 3 m/S 687 mmHg 93%

    übermorgen, 25 Januar, Freitag

    Zeit Temperatur Niederschläge Wind Luftdruck Luftfeuchtigkeit
    00:00 +19°C° 0 mm 3 m/S 687 mmHg 93%
    01:00 +18°C° 0 mm 2 m/S 687 mmHg 93%
    02:00 +18°C° 0 mm 2 m/S 686 mmHg 93%
    03:00 +18°C° 0 mm 2 m/S 686 mmHg 93%
    04:00 +18°C° 0 mm 2 m/S 686 mmHg 93%
    05:00 +18°C° 0 mm 2 m/S 686 mmHg 93%
    06:00 +18°C° 0 mm 2 m/S 686 mmHg 93%
    07:00 +20°C° 0 mm 2 m/S 686 mmHg 86%
    08:00 +23°C° 0 mm 2 m/S 687 mmHg 79%
    09:00 +25°C° 0 mm 3 m/S 688 mmHg 72%
    10:00 +26°C° 0.1 mm 3 m/S 688 mmHg 70%
    11:00 +27°C° 0.1 mm 2 m/S 688 mmHg 68%
    12:00 +27°C° 0.1 mm 2 m/S 688 mmHg 67%
    13:00 +27°C° 1.1 mm 2 m/S 688 mmHg 69%
    14:00 +27°C° 1.1 mm 3 m/S 687 mmHg 70%
    15:00 +27°C° 1.1 mm 3 m/S 686 mmHg 72%
    16:00 +26°C° 1.6 mm 3 m/S 686 mmHg 76%
    17:00 +25°C° 1.6 mm 3 m/S 686 mmHg 80%
    18:00 +24°C° 1.6 mm 3 m/S 686 mmHg 84%
    19:00 +23°C° 1.1 mm 2 m/S 687 mmHg 88%
    20:00 +21°C° 1.1 mm 2 m/S 687 mmHg 91%
    21:00 +20°C° 1.1 mm 2 m/S 687 mmHg 94%
    22:00 +19°C° 0 mm 2 m/S 687 mmHg 95%
    23:00 +19°C° 0 mm 2 m/S 687 mmHg 95%

    26 Januar, Samstag

    Zeit Temperatur Niederschläge Wind Luftdruck Luftfeuchtigkeit
    00:00 +20°C° 0 mm 1 m/S 687 mmHg 95%
    01:00 +20°C° 0 mm 1 m/S 686 mmHg 95%
    02:00 +19°C° 0 mm 1 m/S 686 mmHg 95%
    03:00 +19°C° 0 mm 1 m/S 686 mmHg 95%
    04:00 +19°C° 0 mm 1 m/S 686 mmHg 94%
    05:00 +19°C° 0 mm 1 m/S 686 mmHg 93%
    06:00 +18°C° 0 mm 1 m/S 686 mmHg 91%
    07:00 +21°C° 0 mm 1 m/S 687 mmHg 81%
    08:00 +23°C° 0 mm 2 m/S 688 mmHg 70%
    09:00 +25°C° 0 mm 2 m/S 689 mmHg 59%
    10:00 +27°C° 0 mm 2 m/S 689 mmHg 53%
    11:00 +28°C° 0 mm 2 m/S 689 mmHg 47%
    12:00 +30°C° 0 mm 3 m/S 690 mmHg 41%
    13:00 +29°C° 0 mm 3 m/S 689 mmHg 44%
    14:00 +29°C° 0 mm 3 m/S 689 mmHg 46%
    15:00 +29°C° 0 mm 2 m/S 688 mmHg 49%
    16:00 +27°C° 0.2 mm 2 m/S 688 mmHg 55%
    17:00 +26°C° 0.2 mm 2 m/S 687 mmHg 61%
    18:00 +25°C° 0.2 mm 2 m/S 687 mmHg 67%
    19:00 +24°C° 0.1 mm 1 m/S 687 mmHg 71%
    20:00 +23°C° 0.1 mm 1 m/S 687 mmHg 74%
    21:00 +21°C° 0.1 mm 1 m/S 688 mmHg 78%
    22:00 +21°C° 0.1 mm 1 m/S 688 mmHg 80%
    23:00 +21°C° 0.1 mm 1 m/S 688 mmHg 82%

    27 Januar, Sonntag

    Zeit Temperatur Niederschläge Wind Luftdruck Luftfeuchtigkeit
    00:00 +20°C° 0.1 mm 1 m/S 688 mmHg 84%
    01:00 +20°C° 0 mm 1 m/S 687 mmHg 85%
    02:00 +20°C° 0 mm 1 m/S 687 mmHg 85%
    03:00 +20°C° 0 mm 1 m/S 687 mmHg 86%
    04:00 +19°C° 0 mm 1 m/S 687 mmHg 85%
    05:00 +19°C° 0 mm 1 m/S 687 mmHg 85%
    06:00 +19°C° 0 mm 1 m/S 687 mmHg 85%
    07:00 +20°C° 0 mm 2 m/S 688 mmHg 77%
    08:00 +24°C° 0 mm 2 m/S 689 mmHg 68%
    09:00 +26°C° 0 mm 2 m/S 689 mmHg 60%
    10:00 +28°C° 0 mm 3 m/S 689 mmHg 56%
    11:00 +29°C° 0 mm 3 m/S 689 mmHg 51%
    12:00 +31°C° 0 mm 3 m/S 689 mmHg 46%
    13:00 +31°C° 0 mm 3 m/S 689 mmHg 48%
    14:00 +31°C° 0 mm 2 m/S 688 mmHg 50%
    15:00 +31°C° 0 mm 2 m/S 688 mmHg 51%
    16:00 +29°C° 0.2 mm 2 m/S 687 mmHg 59%
    17:00 +27°C° 0.2 mm 1 m/S 687 mmHg 66%
    18:00 +26°C° 0.2 mm 1 m/S 687 mmHg 74%
    19:00 +25°C° 0.2 mm 1 m/S 687 mmHg 78%
    20:00 +24°C° 0.2 mm 1 m/S 688 mmHg 83%
    21:00 +21°C° 0.2 mm 2 m/S 688 mmHg 87%
    22:00 +22°C° 0 mm 1 m/S 688 mmHg 88%
    23:00 +22°C° 0 mm 1 m/S 688 mmHg 88%

    28 Januar, Montag

    Zeit Temperatur Niederschläge Wind Luftdruck Luftfeuchtigkeit
    00:00 +21°C° 0 mm 1 m/S 688 mmHg 89%
    01:00 +21°C° 0 mm 1 m/S 688 mmHg 90%
    02:00 +21°C° 0 mm 1 m/S 687 mmHg 90%
    03:00 +21°C° 0 mm 1 m/S 687 mmHg 91%
    04:00 +21°C° 0 mm 1 m/S 687 mmHg 90%
    05:00 +21°C° 0 mm 1 m/S 687 mmHg 89%
    06:00 +20°C° 0 mm 1 m/S 687 mmHg 89%
    07:00 +23°C° 0 mm 1 m/S 688 mmHg 79%
    08:00 +25°C° 0 mm 2 m/S 689 mmHg 70%
    09:00 +27°C° 0 mm 3 m/S 690 mmHg 61%
    10:00 +29°C° 0 mm 3 m/S 690 mmHg 56%
    11:00 +30°C° 0 mm 3 m/S 690 mmHg 51%
    12:00 +32°C° 0 mm 2 m/S 690 mmHg 46%
    13:00 +32°C° 0 mm 2 m/S 689 mmHg 44%
    14:00 +32°C° 0 mm 2 m/S 689 mmHg 42%
    15:00 +34°C° 0 mm 2 m/S 688 mmHg 41%
    16:00 +31°C° 0 mm 2 m/S 688 mmHg 47%
    17:00 +30°C° 0 mm 1 m/S 688 mmHg 53%
    18:00 +29°C° 0 mm 1 m/S 688 mmHg 60%
    19:00 +27°C° 0 mm 1 m/S 688 mmHg 64%
    20:00 +26°C° 0 mm 1 m/S 688 mmHg 69%
    21:00 +24°C° 0 mm 1 m/S 688 mmHg 73%
    22:00 +24°C° 0 mm 1 m/S 688 mmHg 74%
    23:00 +24°C° 0 mm 1 m/S 688 mmHg 76%
    Mehr zeigen